This is the latest recevied weather packets stored in our database for station/object KI4MRC. If no packets are shown the sender has not sent any weather packets the latest 10 day(s).
| Time | Temp. | Humidity | Pressure | Rain* | Wind** | Luminosity | Snow |
|---|---|---|---|---|---|---|---|
| 1777830474 | 24.44° C | 92% | 1016.3 hPa | 0.51 mm | - | 163 W/m² | - |
| 1777830173 | 24.44° C | 91% | 1015.8 hPa | 2.29 mm | - | 238 W/m² | - |
| 1777829873 | 24.44° C | 92% | 1016.1 hPa | 3.56 mm | - | 191 W/m² | - |
| 1777829570 | 24.44° C | 91% | 1016.2 hPa | 1.78 mm | - | 129 W/m² | - |
| 1777829267 | 24.44° C | 91% | 1016 hPa | 0.51 mm | - | 155 W/m² | - |
| 1777828964 | 24.44° C | 90% | 1016.1 hPa | 1.27 mm | - | 106 W/m² | - |
| 1777828660 | 24.44° C | 90% | 1016.2 hPa | 0 mm | - | 80 W/m² | - |
| 1777828357 | 24.44° C | 88% | 1016 hPa | 0.51 mm | - | 64 W/m² | - |
| 1777828055 | 25° C | 87% | 1016 hPa | 1.78 mm | - | 73 W/m² | - |
| 1777827751 | 25° C | 86% | 1016.3 hPa | 1.27 mm | - | 93 W/m² | - |
| 1777827448 | 25° C | 84% | 1016.4 hPa | 0 mm | - | 102 W/m² | - |
| 1777827146 | 25° C | 84% | 1016.2 hPa | 0 mm | - | 130 W/m² | - |
| 1777826841 | 25° C | 83% | 1016.1 hPa | 0 mm | - | 153 W/m² | - |
| 1777826540 | 25.56° C | 83% | 1016.1 hPa | 0 mm | - | 167 W/m² | - |
| 1777826235 | 25.56° C | 84% | 1016.1 hPa | 0 mm | - | 167 W/m² | - |
| 1777825933 | 25° C | 84% | 1016.1 hPa | 0 mm | - | 206 W/m² | - |
| 1777825630 | 25.56° C | 83% | 1016.2 hPa | 0 mm | - | 140 W/m² | - |
| 1777825328 | 25.56° C | 83% | 1016.1 hPa | 0 mm | - | 259 W/m² | - |
| 1777825024 | 25.56° C | 83% | 1016.1 hPa | 0 mm | - | 247 W/m² | - |
| 1777824720 | 25.56° C | 82% | 1016.1 hPa | 0 mm | - | 312 W/m² | - |
| 1777824418 | 25.56° C | 83% | 1016.3 hPa | 0 mm | - | 352 W/m² | - |
| 1777824113 | 25.56° C | 82% | 1016.2 hPa | 0 mm | - | 344 W/m² | - |
| 1777823809 | 25.56° C | 84% | 1016.2 hPa | 0 mm | - | 457 W/m² | - |
| 1777823507 | 25° C | 86% | 1016.2 hPa | 0 mm | - | 382 W/m² | - |
| 1777823204 | 25° C | 85% | 1016.2 hPa | 0 mm | - | 261 W/m² | - |
* Rain latest hour (hover to see other rain measurements)
** Current wind speed in m/s (hover to see current wind gust speed)